EW1671 Weather Reports


Display with metric or nautical units.
time (UTC)temp
F
wind
direction
speed
MPH
gust
MPH
rain 1hr
in
rain 24hr
in
rain mn
in
humidity
%
barometer
mb
20260506001558 71 206 2.0 9.0 0.00 0.00 0.00 52 1005.5
20260506001053 71 219 3.0 12.0 0.00 0.00 0.00 50 1005.4
20260506000552 72 232 3.0 12.0 0.00 0.00 0.00 49 1005.4
20260506000058 72 190 5.0 9.0 0.00 0.00 0.00 49 1005.2
20260505235556 73 224 3.0 8.0 0.00 0.00 0.00 48 1005.2
20260505235053 73 205 3.0 12.0 0.00 0.00 0.00 48 1005.1
20260505234553 73 197 5.0 13.0 0.00 0.00 0.00 48 1005.1
20260505234053 73 207 4.0 13.0 0.00 0.00 0.00 48 1005.0
20260505233551 74 166 7.0 15.0 0.00 0.00 0.00 48 1005.0
20260505233103 74 224 5.0 20.0 0.00 0.00 0.00 48 1005.0
20260505232551 74 220 7.0 20.0 0.00 0.00 0.00 47 1005.0
20260505232052 74 204 5.0 18.0 0.00 0.00 0.00 46 1005.0
20260505231552 74 228 6.0 18.0 0.00 0.00 0.00 47 1005.0
20260505231055 75 125 3.0 18.0 0.00 0.00 0.00 47 1004.9
20260505230550 75 194 4.0 12.0 0.00 0.00 0.00 47 1004.9
20260505230052 75 211 5.0 17.0 0.00 0.00 0.00 47 1004.9
20260505225550 75 176 7.0 17.0 0.00 0.00 0.00 47 1004.9
20260505225051 75 225 5.0 16.0 0.00 0.00 0.00 49 1005.0
20260505224550 75 205 4.0 16.0 0.00 0.00 0.00 48 1004.9
20260505224049 75 202 5.0 11.0 0.00 0.00 0.00 47 1004.9
20260505223550 76 216 4.0 11.0 0.00 0.00 0.00 47 1004.9
20260505223051 76 209 4.0 14.0 0.00 0.00 0.00 45 1004.9
20260505222549 76 211 5.0 14.0 0.00 0.00 0.00 44 1004.9
20260505222050 76 237 5.0 19.0 0.00 0.00 0.00 44 1004.9
20260505221551 77 211 7.0 19.0 0.00 0.00 0.00 43 1004.8
20260505221052 77 179 6.0 16.0 0.00 0.00 0.00 40 1005.0
20260505220548 77 251 4.0 22.0 0.00 0.00 0.00 40 1004.8
20260505220048 77 217 4.0 22.0 0.00 0.00 0.00 40 1004.9
20260505215548 77 213 5.0 16.0 0.00 0.00 0.00 40 1004.9
20260505215048 77 209 7.0 21.0 0.00 0.00 0.00 41 1004.9
20260505214548 78 189 6.0 21.0 0.00 0.00 0.00 40 1004.9
20260505214050 78 236 7.0 25.0 0.00 0.00 0.00 40 1004.9
20260505213546 78 217 9.0 25.0 0.00 0.00 0.00 39 1004.9
20260505213151 79 218 8.0 25.0 0.00 0.00 0.00 40 1004.8
20260505212546 80 265 9.0 25.0 0.00 0.00 0.00 40 1004.8
20260505212046 80 218 7.0 24.0 0.00 0.00 0.00 41 1004.7
20260505211546 79 230 10.0 22.0 0.00 0.00 0.00 43 1004.7
20260505211045 79 223 6.0 17.0 0.00 0.00 0.00 40 1004.8
20260505210544 80 233 8.0 19.0 0.00 0.00 0.00 39 1004.7
20260505210044 80 194 5.0 20.0 0.00 0.00 0.00 42 1004.8
20260505205544 80 208 4.0 20.0 0.00 0.00 0.00 44 1004.7
20260505205043 80 180 8.0 18.0 0.00 0.00 0.00 41 1004.7
20260505204542 80 224 9.0 20.0 0.00 0.00 0.00 41 1004.8
20260505204042 80 201 8.0 20.0 0.00 0.00 0.00 44 1004.8
20260505203541 80 210 6.0 18.0 0.00 0.00 0.00 44 1004.8
20260505203048 80 339 3.0 19.0 0.00 0.00 0.00 44 1004.9
20260505202541 79 208 6.0 19.0 0.00 0.00 0.00 44 1004.9
20260505202041 80 226 6.0 17.0 0.00 0.00 0.00 43 1004.9
20260505201540 80 237 6.0 22.0 0.00 0.00 0.00 44 1004.9
20260505201039 80 210 6.0 22.0 0.00 0.00 0.00 41 1005.0
20260505200539 80 211 7.0 19.0 0.00 0.00 0.00 43 1005.0
20260505200039 80 203 6.0 18.0 0.00 0.00 0.00 46 1005.0
20260505195539 80 249 8.0 18.0 0.00 0.00 0.00 44 1005.1
20260505195037 80 226 6.0 21.0 0.00 0.00 0.00 45 1005.0
20260505194536 80 242 8.0 21.0 0.00 0.00 0.00 47 1005.1
20260505194038 80 178 9.0 17.0 0.00 0.00 0.00 47 1005.1
20260505193535 79 198 4.0 19.0 0.00 0.00 0.00 48 1005.1
20260505193047 79 213 7.0 20.0 0.00 0.00 0.00 46 1005.3
20260505192533 79 235 7.0 20.0 0.00 0.00 0.00 47 1005.5
20260505192032 79 220 4.0 23.0 0.00 0.00 0.00 48 1005.5
20260505191539 79 229 11.0 23.0 0.00 0.00 0.00 46 1005.5
20260505191032 79 190 7.0 24.0 0.00 0.00 0.00 47 1005.7
20260505190534 79 197 6.0 24.0 0.00 0.00 0.00 46 1005.8
20260505190038 79 233 5.0 22.0 0.00 0.00 0.00 46 1005.7
20260505185531 80 216 10.0 19.0 0.00 0.00 0.00 48 1005.8
20260505185030 79 221 3.0 18.0 0.00 0.00 0.00 49 1005.7
20260505184629 79 203 4.0 18.0 0.00 0.00 0.00 48 1005.8
20260505184029 79 256 3.0 21.0 0.00 0.00 0.00 50 1005.9
20260505183527 79 199 10.0 20.0 0.00 0.00 0.00 49 1006.0
20260505183028 79 295 7.0 16.0 0.00 0.00 0.00 49 1005.9
20260505182526 79 232 5.0 16.0 0.00 0.00 0.00 49 1006.1
20260505182029 79 239 5.0 18.0 0.00 0.00 0.00 50 1006.2
20260505181526 79 161 8.0 18.0 0.00 0.00 0.00 47 1006.1
20260505181026 79 310 4.0 12.0 0.00 0.00 0.00 52 1006.3
20260505180525 78 235 5.0 17.0 0.00 0.00 0.00 50 1006.2
20260505180034 78 208 8.0 17.0 0.00 0.00 0.00 48 1006.4
20260505175528 78 221 2.0 12.0 0.00 0.00 0.00 52 1006.4
20260505175024 79 233 4.0 13.0 0.00 0.00 0.00 48 1006.4
20260505174524 79 235 3.0 10.0 0.00 0.00 0.00 49 1006.4
20260505174023 79 217 3.0 10.0 0.00 0.00 0.00 48 1006.4
20260505173527 79 224 2.0 10.0 0.00 0.00 0.00 46 1006.5
20260505173023 79 230 4.0 11.0 0.00 0.00 0.00 48 1006.5
20260505172524 79 302 5.0 13.0 0.00 0.00 0.00 50 1006.5
20260505172021 79 228 2.0 17.0 0.00 0.00 0.00 54 1006.4
20260505171520 79 189 5.0 16.0 0.00 0.00 0.00 52 1006.5
20260505171020 79 222 5.0 15.0 0.00 0.00 0.00 52 1006.7
20260505170517 78 345 5.0 10.0 0.00 0.00 0.00 51 1006.9
20260505170019 78 240 2.0 13.0 0.00 0.00 0.00 51 1006.9
20260505165517 78 221 4.0 13.0 0.00 0.00 0.00 50 1007.0
20260505165016 79 243 5.0 15.0 0.00 0.00 0.00 50 1007.1
20260505164515 78 187 3.0 15.0 0.00 0.00 0.00 50 1007.1
20260505164014 78 228 3.0 10.0 0.00 0.00 0.00 56 1007.1
20260505163512 77 221 4.0 10.0 0.00 0.00 0.00 55 1007.3
20260505163012 77 174 2.0 22.0 0.00 0.00 0.00 51 1007.3
20260505162511 77 230 4.0 25.0 0.00 0.00 0.00 51 1007.4
20260505162012 77 208 6.0 14.0 0.00 0.00 0.00 50 1007.5
20260505161509 77 162 2.0 7.0 0.00 0.00 0.00 56 1007.6
20260505161009 76 237 3.0 14.0 0.00 0.00 0.00 54 1007.7
20260505160509 76 218 4.0 14.0 0.00 0.00 0.00 52 1007.8
20260505153006 75 253 2.0 13.0 0.00 0.00 0.00 56 1008.0
20260505152504 75 235 2.0 13.0 0.00 0.00 0.00 57 1008.0
20260505152003 75 222 4.0 18.0 0.00 0.00 0.00 56 1007.9
20260505151503 75 219 6.0 18.0 0.00 0.00 0.00 57 1007.9
20260505151002 75 221 5.0 19.0 0.00 0.00 0.00 55 1008.0
20260505150605 74 243 5.0 19.0 0.00 0.00 0.00 58 1008.1
20260505140550 71 199 7.0 19.0 0.00 0.00 0.00 60 1008.2
20260505125031 65 224 3.0 13.0 0.00 0.00 0.00 69 1008.7
20260505124530 65 203 3.0 12.0 0.00 0.00 0.00 68 1008.7
20260505124029 65 276 6.0 14.0 0.00 0.00 0.00 68 1008.7
20260505123531 64 189 5.0 13.0 0.00 0.00 0.00 70 1008.7
20260505123026 64 226 7.0 13.0 0.00 0.00 0.00 69 1008.8
20260505122525 64 203 3.0 11.0 0.00 0.00 0.00 72 1008.9
20260505122024 63 208 2.0 10.0 0.00 0.00 0.00 72 1009.0
20260505121523 63 183 3.0 11.0 0.00 0.00 0.00 72 1009.0
20260505121021 62 190 2.0 11.0 0.00 0.00 0.00 74 1008.9
20260505120520 62 194 2.0 7.0 0.00 0.00 0.00 74 1008.9
20260505120033 61 267 0.0 7.0 0.00 0.00 0.00 74 1009.0
20260505115519 60 214 2.0 9.0 0.00 0.00 0.00 74 1009.0
20260505115019 60 211 4.0 9.0 0.00 0.00 0.00 75 1009.0
20260505114518 60 228 2.0 6.0 0.00 0.00 0.00 76 1009.0
20260505114017 59 226 2.0 6.0 0.00 0.00 0.00 78 1009.0
20260505113517 58 205 1.0 6.0 0.00 0.00 0.00 79 1008.8
20260505113017 58 212 1.0 5.0 0.00 0.00 0.00 80 1008.8
20260505112520 57 185 1.0 6.0 0.00 0.00 0.00 80 1008.8
20260505112015 57 156 2.0 6.0 0.00 0.00 0.00 80 1008.8
20260505111524 56 195 2.0 5.0 0.00 0.00 0.00 80 1008.7
20260505111015 56 205 1.0 6.0 0.00 0.00 0.00 80 1008.7
20260505110518 56 218 1.0 6.0 0.00 0.00 0.00 80 1008.7
20260505102010 56 193 2.0 7.0 0.00 0.00 0.00 80 1008.2
20260505101511 56 204 3.0 9.0 0.00 0.00 0.00 80 1008.2
20260505101014 56 199 3.0 9.0 0.00 0.00 0.00 80 1008.2
20260505100513 56 212 3.0 9.0 0.00 0.00 0.00 80 1008.2
20260505100010 56 199 2.0 10.0 0.00 0.00 0.00 80 1008.1
20260505095509 55 214 3.0 9.0 0.00 0.00 0.00 80 1008.1
20260505095008 55 198 3.0 8.0 0.00 0.00 0.00 80 1008.2
20260505094510 55 212 2.0 6.0 0.00 0.00 0.00 80 1008.0
20260505094008 55 224 2.0 9.0 0.00 0.00 0.00 80 1007.9
20260505093507 55 176 4.0 9.0 0.00 0.00 0.00 80 1007.8
20260505093007 55 212 3.0 8.0 0.00 0.00 0.00 80 1007.8
20260505092507 55 204 3.0 10.0 0.00 0.00 0.00 80 1007.8
20260505092007 55 191 3.0 10.0 0.00 0.00 0.00 80 1007.8
20260505091505 55 190 4.0 10.0 0.00 0.00 0.00 80 1007.9
20260505091004 55 197 3.0 9.0 0.00 0.00 0.00 79 1007.9
20260505090503 55 207 2.0 10.0 0.00 0.00 0.00 79 1007.8
20260505090003 55 212 3.0 10.0 0.00 0.00 0.00 79 1007.8
20260505085503 56 204 1.0 8.0 0.00 0.00 0.00 78 1007.8
20260505085004 56 222 2.0 8.0 0.00 0.00 0.00 78 1007.8
20260505084502 56 191 3.0 8.0 0.00 0.00 0.00 78 1007.7
20260505084003 56 202 2.0 7.0 0.00 0.00 0.00 78 1007.8
20260505083501 56 206 2.0 8.0 0.00 0.00 0.00 79 1007.7
20260505083000 55 206 1.0 9.0 0.00 0.00 0.00 79 1007.7
20260505082600 55 216 2.0 5.0 0.00 0.00 0.00 79 1007.7
20260505082100 56 208 1.0 5.0 0.00 0.00 0.00 79 1007.6
20260505081604 56 189 1.0 8.0 0.00 0.00 0.00 78 1007.7
20260505081059 56 200 1.0 8.0 0.00 0.00 0.00 78 1007.7
20260505080557 56 184 2.0 7.0 0.00 0.00 0.00 78 1007.6
20260505075558 56 169 3.0 10.0 0.00 0.00 0.00 77 1007.5
20260505075056 57 202 3.0 10.0 0.00 0.00 0.00 77 1007.5
20260505074555 57 208 2.0 10.0 0.00 0.00 0.00 76 1007.4
20260505074055 57 195 2.0 10.0 0.00 0.00 0.00 76 1007.5
20260505073555 57 230 2.0 7.0 0.00 0.00 0.00 76 1007.3
20260505073100 58 206 3.0 8.0 0.00 0.00 0.00 76 1007.3
20260505072558 57 191 4.0 8.0 0.00 0.00 0.00 76 1007.3
20260505072054 57 210 4.0 8.0 0.00 0.00 0.00 77 1007.2
20260505071612 57 205 3.0 8.0 0.00 0.00 0.00 77 1007.3
20260505071057 57 201 3.0 10.0 0.00 0.00 0.00 77 1007.3
20260505070654 57 211 4.0 10.0 0.00 0.00 0.00 77 1007.3
20260505070055 57 184 3.0 9.0 0.00 0.00 0.00 77 1007.3
20260505065553 57 222 2.0 9.0 0.00 0.00 0.00 78 1007.3
20260505065052 57 209 3.0 9.0 0.00 0.00 0.00 78 1007.3
20260505064551 57 220 2.0 8.0 0.00 0.00 0.00 78 1007.3
20260505064053 57 205 2.0 8.0 0.00 0.00 0.00 79 1007.3
20260505063552 57 207 1.0 9.0 0.00 0.00 0.00 79 1007.3
20260505063053 57 210 1.0 6.0 0.00 0.00 0.00 79 1007.4
20260505062549 57 205 1.0 6.0 0.00 0.00 0.00 78 1007.5
20260505062048 57 210 0.0 7.0 0.00 0.00 0.00 79 1007.5
20260505061550 57 203 2.0 8.0 0.00 0.00 0.00 79 1007.6
20260505061048 57 200 3.0 8.0 0.00 0.00 0.00 79 1007.5
20260505060548 57 237 1.0 6.0 0.00 0.00 0.00 79 1007.6
20260505060058 57 216 1.0 6.0 0.00 0.00 0.00 79 1007.7
20260505055548 57 189 2.0 7.0 0.00 0.00 0.00 79 1007.6
20260505055050 56 212 3.0 7.0 0.00 0.00 0.00 79 1007.7
20260505054546 56 200 1.0 5.0 0.00 0.00 0.00 79 1007.7
20260505054044 57 218 1.0 5.0 0.00 0.00 0.00 79 1007.7
20260505053543 57 166 1.0 7.0 0.00 0.00 0.00 78 1007.7
20260505053043 57 205 1.0 8.0 0.00 0.00 0.00 78 1007.7
20260505052540 57 207 1.0 8.0 0.00 0.00 0.00 77 1007.8
20260505052039 58 198 2.0 10.0 0.00 0.00 0.00 77 1007.8
20260505051539 58 232 3.0 10.0 0.00 0.00 0.00 76 1007.7
20260505051038 58 187 2.0 10.0 0.00 0.00 0.00 76 1007.7
20260505050536 59 198 3.0 10.0 0.00 0.00 0.00 75 1007.7
20260505041532 61 209 5.0 12.0 0.00 0.00 0.00 72 1007.3
20260505041027 60 208 4.0 12.0 0.00 0.00 0.00 72 1007.3
20260505040531 61 216 5.0 9.0 0.00 0.00 0.00 72 1007.4
20260505040025 61 174 4.0 10.0 0.00 0.00 0.00 71 1007.3
20260505035527 62 201 3.0 10.0 0.00 0.00 0.00 69 1007.3
20260505035023 63 187 4.0 12.0 0.00 0.00 0.00 68 1007.3
20260505034524 63 227 6.0 14.0 0.00 0.00 0.00 67 1007.3
20260505034024 63 208 6.0 12.0 0.00 0.00 0.00 67 1007.3
20260505033522 64 223 6.0 12.0 0.00 0.00 0.00 67 1007.3
20260505033022 64 206 4.0 13.0 0.00 0.00 0.00 66 1007.4
20260505032522 64 231 6.0 16.0 0.00 0.00 0.00 66 1007.4
20260505032023 64 220 4.0 16.0 0.00 0.00 0.00 65 1007.4
20260505031521 64 189 7.0 16.0 0.00 0.00 0.00 66 1007.5
20260505031021 64 203 7.0 15.0 0.00 0.00 0.00 66 1007.5
20260505030521 64 234 5.0 15.0 0.00 0.00 0.00 66 1007.4
20260505030021 64 226 6.0 14.0 0.00 0.00 0.00 66 1007.4
20260505025524 64 205 5.0 18.0 0.00 0.00 0.00 67 1007.4
20260505025020 63 217 5.0 18.0 0.00 0.00 0.00 67 1007.3
20260505024520 63 224 5.0 12.0 0.00 0.00 0.00 67 1007.3
20260505024020 63 223 3.0 12.0 0.00 0.00 0.00 68 1007.2
20260505023519 62 214 4.0 9.0 0.00 0.00 0.00 68 1007.3
20260505023021 63 202 3.0 10.0 0.00 0.00 0.00 68 1007.2
20260505022519 63 206 4.0 10.0 0.00 0.00 0.00 67 1007.3
20260505022019 62 191 4.0 11.0 0.00 0.00 0.00 67 1007.1
20260505021519 62 212 5.0 10.0 0.00 0.00 0.00 68 1007.1
20260505021018 62 206 4.0 10.0 0.00 0.00 0.00 69 1007.0
20260505020518 62 202 4.0 11.0 0.00 0.00 0.00 68 1007.1
20260505020027 63 210 4.0 10.0 0.00 0.00 0.00 67 1007.1
20260505015518 64 195 3.0 11.0 0.00 0.00 0.00 66 1007.1
20260505015018 64 210 5.0 11.0 0.00 0.00 0.00 65 1007.2
20260505014531 64 207 4.0 9.0 0.00 0.00 0.00 65 1007.2
20260505014017 64 205 3.0 9.0 0.00 0.00 0.00 65 1007.2
20260505013518 64 206 3.0 8.0 0.00 0.00 0.00 65 1007.2
20260505013021 65 222 2.0 10.0 0.00 0.00 0.00 65 1007.1
20260505012520 65 208 4.0 10.0 0.00 0.00 0.00 64 1007.0
20260505012017 65 223 3.0 9.0 0.00 0.00 0.00 64 1007.0
20260505011520 65 211 5.0 9.0 0.00 0.00 0.00 64 1007.1
20260505011017 65 206 4.0 15.0 0.00 0.00 0.00 63 1007.0
20260505010516 65 224 7.0 19.0 0.00 0.00 0.00 63 1006.8
20260505010016 64 233 7.0 19.0 0.00 0.00 0.00 62 1006.6
20260505005516 63 189 5.0 10.0 0.00 0.00 0.00 63 1006.7
20260505005016 63 203 4.0 10.0 0.00 0.00 0.00 63 1006.7
20260505004516 64 220 2.0 6.0 0.00 0.00 0.00 63 1006.5
20260505004017 64 205 2.0 6.0 0.00 0.00 0.00 61 1006.5
20260505003515 65 205 2.0 8.0 0.00 0.00 0.00 60 1006.4
20260505003023 65 206 3.0 8.0 0.00 0.00 0.00 59 1006.3
20260505002515 65 203 3.0 9.0 0.00 0.00 0.00 59 1006.2
20260505002015 66 190 2.0 9.0 0.00 0.00 0.00 58 1006.2